New Ulm, MN

10:13 AM CDT on August 26, 2016 (GMT -0500)
New Ulm Municipal

Weather History for KULM - April, 2013

Change the Weather History Date:

Monday, April 29, 2013

  Actual Average Record
Temperature  
Mean Temperature 60 °F -  
Max Temperature 75 °F 65 °F 88 °F (1970)
Min Temperature 46 °F 41 °F 23 °F (1958)
Degree Days  
Heating Degree Days 4    
Growing Degree Days 10 (Base 50)    
Moisture  
Dew Point 46 °F    
Average Humidity 61    
Maximum Humidity 88    
Minimum Humidity 36    
Precipitation  
Precipitation 0.00 in - - ()
Sea Level Pressure  
Sea Level Pressure 29.71 in    
Wind  
Wind Speed 6 mph (ESE)    
Max Wind Speed 16 mph    
Max Gust Speed 20 mph    
Visibility 10 miles    
Events Thunderstorm    
Averages and records for this station are not official NWS values.
T = Trace of Precipitation, MM = Missing Value Source: NWS Daily Summary

Daily Weather History Graph

Daily Weather History Graph

Search for Another Location

Airport or City:

Trip Planner

Search our weather history database for the weather conditions in past years. The results will help you decide how hot, cold, wet, or windy it might be!

Date:

Astronomy

Apr. 29, 2013 Rise Set
Actual Time 6:11 AM CDT 8:19 PM CDT
Civil Twilight 5:39 AM CDT 8:51 PM CDT
Nautical Twilight 5:00 AM CDT 9:31 PM CDT
Astronomical Twilight 4:17 AM CDT 10:14 PM CDT
Moon No Moon Rise 9:29 AM CDT (4/29)
Length of Visible Light 15h 12m
Length of Day
14h 08m
Waning Gibbous, 80% of the Moon is Illuminated
Apr 29
Waning Gibbous
May 2
Last Quarter
May 9
New
May 17
First Quarter
May 24
Full

Hourly Weather History & Observations

Time (CDT) Temp. Windchill Dew Point Humidity Pressure Visibility Wind Dir Wind Speed Gust Speed Precip Events Conditions
12:13 AM 55.4 °F - 50.0 °F 82% 29.78 in 10.0 mi NW 4.6 mph - N/A   Clear
12:33 AM 55.4 °F - 50.0 °F 82% 29.79 in 10.0 mi WNW 3.5 mph - N/A Thunderstorm Clear
12:53 AM 53.6 °F - 48.2 °F 82% 29.80 in 10.0 mi WSW 3.5 mph - N/A   Clear
1:13 AM 53.6 °F - 48.2 °F 82% 29.81 in 10.0 mi West 4.6 mph - N/A   Clear
1:33 AM 53.6 °F - 48.2 °F 82% 29.81 in 10.0 mi West 5.8 mph - N/A   Clear
1:53 AM 51.8 °F - 48.2 °F 88% 29.82 in 10.0 mi WSW 4.6 mph - N/A   Clear
2:12 AM 51.8 °F - 48.2 °F 88% 29.81 in 10.0 mi WNW 4.6 mph - N/A   Clear
2:33 AM 51.8 °F - 48.2 °F 88% 29.81 in 10.0 mi NW 5.8 mph - N/A   Clear
2:53 AM 51.8 °F - 46.4 °F 82% 29.80 in 10.0 mi NNW 6.9 mph - N/A   Clear
3:12 AM 51.8 °F - 46.4 °F 82% 29.80 in 10.0 mi NNW 8.1 mph - N/A   Clear
3:33 AM 51.8 °F - 46.4 °F 82% 29.79 in 10.0 mi North 4.6 mph - N/A   Clear
3:53 AM 51.8 °F - 46.4 °F 82% 29.79 in 10.0 mi North 4.6 mph - N/A   Clear
4:12 AM 50.0 °F - 44.6 °F 82% 29.81 in 10.0 mi NW 6.9 mph - N/A Thunderstorm Thunderstorm
4:33 AM 48.2 °F - 44.6 °F 87% 29.83 in 10.0 mi NW 6.9 mph - N/A   Clear
4:53 AM 48.2 °F - 44.6 °F 87% 29.83 in 10.0 mi NNW 5.8 mph - N/A   Clear
5:12 AM 46.4 °F 42.9 °F 42.8 °F 87% 29.83 in 10.0 mi NW 6.9 mph - N/A   Clear
5:33 AM 46.4 °F 42.9 °F 42.8 °F 87% 29.82 in 10.0 mi NNW 6.9 mph - N/A   Clear
5:53 AM 46.4 °F 42.9 °F 41.0 °F 81% 29.83 in 10.0 mi NNW 6.9 mph - N/A   Clear
6:13 AM 46.4 °F 42.4 °F 41.0 °F 81% 29.83 in 10.0 mi NNW 8.1 mph - N/A   Clear
6:33 AM 46.4 °F 41.9 °F 41.0 °F 81% 29.83 in 10.0 mi NNW 9.2 mph - N/A   Clear
6:53 AM 46.4 °F 44.3 °F 39.2 °F 76% 29.82 in 10.0 mi North 4.6 mph - N/A   Clear
7:13 AM 46.4 °F 44.3 °F 39.2 °F 76% 29.82 in 10.0 mi North 4.6 mph - N/A   Clear
7:33 AM 46.4 °F 44.3 °F 41.0 °F 81% 29.83 in 10.0 mi North 4.6 mph - N/A   Clear
7:53 AM 46.4 °F 43.5 °F 41.0 °F 81% 29.82 in 10.0 mi North 5.8 mph - N/A   Clear
8:13 AM 48.2 °F - 41.0 °F 76% 29.82 in 10.0 mi NNE 5.8 mph - N/A   Clear
8:33 AM 50.0 °F - 41.0 °F 71% 29.82 in 10.0 mi NE 5.8 mph - N/A   Clear
8:52 AM 51.8 °F - 42.8 °F 71% 29.82 in 10.0 mi NE 4.6 mph - N/A   Clear
9:13 AM 53.6 °F - 41.0 °F 62% 29.82 in 10.0 mi ENE 6.9 mph - N/A   Clear
9:33 AM 55.4 °F - 39.2 °F 54% 29.80 in 10.0 mi ENE 8.1 mph - N/A   Clear
9:52 AM 55.4 °F - 39.2 °F 54% 29.80 in 10.0 mi NE 6.9 mph - N/A   Clear
10:13 AM 57.2 °F - 39.2 °F 51% 29.78 in 10.0 mi ENE 8.1 mph - N/A   Clear
10:33 AM 59.0 °F - 41.0 °F 51% 29.77 in 10.0 mi East 5.8 mph - N/A   Clear
10:52 AM 60.8 °F - 42.8 °F 52% 29.77 in 10.0 mi East 5.8 mph - N/A   Clear
11:13 AM 62.6 °F - 42.8 °F 48% 29.77 in 10.0 mi ESE 3.5 mph - N/A   Clear
11:33 AM 62.6 °F - 44.6 °F 52% 29.76 in 10.0 mi East 4.6 mph - N/A   Clear
11:52 AM 64.4 °F - 44.6 °F 49% 29.76 in 10.0 mi East 3.5 mph - N/A   Clear
12:13 PM 64.4 °F - 44.6 °F 49% 29.74 in 10.0 mi East 3.5 mph - N/A   Clear
12:33 PM 66.2 °F - 44.6 °F 46% 29.73 in 10.0 mi ENE 5.8 mph - N/A   Clear
12:53 PM 66.2 °F - 46.4 °F 49% 29.72 in 10.0 mi ESE 6.9 mph - N/A   Clear
1:13 PM 68.0 °F - 46.4 °F 46% 29.71 in 10.0 mi ESE 9.2 mph - N/A   Clear
1:33 PM 69.8 °F - 44.6 °F 40% 29.70 in 10.0 mi East 13.8 mph - N/A   Clear
1:53 PM 69.8 °F - 44.6 °F 40% 29.69 in 10.0 mi ESE 8.1 mph - N/A   Clear
2:13 PM 69.8 °F - 46.4 °F 43% 29.68 in 10.0 mi SE 3.5 mph - N/A   Clear
2:32 PM 71.6 °F - 44.6 °F 38% 29.67 in 10.0 mi East 6.9 mph - N/A   Clear
2:53 PM 71.6 °F - 44.6 °F 38% 29.67 in 10.0 mi East 8.1 mph - N/A   Clear
3:13 PM 73.4 °F - 46.4 °F 38% 29.66 in 10.0 mi East 8.1 mph - N/A   Clear
3:32 PM 73.4 °F - 44.6 °F 36% 29.65 in 10.0 mi SSE 9.2 mph - N/A   Clear
3:53 PM 73.4 °F - 46.4 °F 38% 29.65 in 10.0 mi South 10.4 mph 16.1 mph N/A   Clear
4:13 PM 73.4 °F - 46.4 °F 38% 29.64 in 10.0 mi SE 3.5 mph - N/A   Clear
4:32 PM 73.4 °F - 48.2 °F 41% 29.63 in 10.0 mi SSE 13.8 mph - N/A   Clear
4:53 PM 73.4 °F - 48.2 °F 41% 29.62 in 10.0 mi South 9.2 mph - N/A   Clear
5:13 PM 73.4 °F - 48.2 °F 41% 29.61 in 10.0 mi South 8.1 mph - N/A   Clear
5:32 PM 75.2 °F - 48.2 °F 38% 29.60 in 10.0 mi South 13.8 mph - N/A   Clear
5:53 PM 75.2 °F - 48.2 °F 38% 29.60 in 10.0 mi South 10.4 mph 16.1 mph N/A   Clear
6:13 PM 75.2 °F - 48.2 °F 38% 29.59 in 10.0 mi South 11.5 mph - N/A   Clear
6:32 PM 75.2 °F - 48.2 °F 38% 29.58 in 10.0 mi SSW 9.2 mph - N/A   Clear
6:53 PM 73.4 °F - 48.2 °F 41% 29.57 in 10.0 mi SSE 9.2 mph - N/A   Clear
7:13 PM 73.4 °F - 48.2 °F 41% 29.57 in 10.0 mi South 6.9 mph - N/A   Clear
7:33 PM 71.6 °F - 50.0 °F 46% 29.57 in 10.0 mi South 5.8 mph - N/A   Clear
7:53 PM 73.4 °F - 48.2 °F 41% 29.57 in 10.0 mi SSE 3.5 mph - N/A   Clear
8:13 PM 69.8 °F - 50.0 °F 49% 29.57 in 10.0 mi SSE 5.8 mph - N/A   Clear
8:33 PM 69.8 °F - 51.8 °F 53% 29.57 in 10.0 mi SSE 6.9 mph - N/A   Clear
8:53 PM 69.8 °F - 51.8 °F 53% 29.57 in 10.0 mi SSE 6.9 mph - N/A   Clear
9:13 PM 69.8 °F - 51.8 °F 53% 29.56 in 10.0 mi SSE 9.2 mph - N/A   Clear
9:33 PM 69.8 °F - 53.6 °F 56% 29.55 in 10.0 mi SSE 9.2 mph - N/A   Clear
9:53 PM 69.8 °F - 53.6 °F 56% 29.55 in 10.0 mi SSE 9.2 mph - N/A   Clear
10:13 PM 69.8 °F - 53.6 °F 56% 29.55 in 10.0 mi SSE 9.2 mph - N/A   Clear
10:33 PM 68.0 °F - 53.6 °F 60% 29.54 in 10.0 mi SE 11.5 mph - N/A   Clear
10:53 PM 68.0 °F - 55.4 °F 64% 29.53 in 10.0 mi SE 12.7 mph - N/A   Clear
11:12 PM 68.0 °F - 55.4 °F 64% 29.52 in 10.0 mi SE 15.0 mph 18.4 mph N/A   Clear
11:33 PM 68.0 °F - 55.4 °F 64% 29.51 in 10.0 mi SE 15.0 mph 19.6 mph N/A   Clear
11:53 PM 66.2 °F - 55.4 °F 68% 29.49 in 10.0 mi SE 16.1 mph 19.6 mph N/A   Clear